• In Uzbekistan
  • List of Countries
  • For 7 days
  • Water Temperature
  • Satellite Maps
  • Weather Map
  • Weather Widgets
  • user-avatar
    Login

    Hourly Weather Makadi Bey

    Today, 22 January, Monday

    Time Temperature Precipitation Wind Pressure Humidity
    00:00 +13°C° 0 mm 1 mps 706 mmHg 49%
    01:00 +12°C° 0 mm 1 mps 706 mmHg 48%
    02:00 +12°C° 0 mm 1 mps 706 mmHg 44%
    03:00 +12°C° 0 mm 1 mps 705 mmHg 43%
    04:00 +12°C° 0 mm 1 mps 705 mmHg 41%
    05:00 +11°C° 0 mm 1 mps 705 mmHg 40%
    06:00 +13°C° 0 mm 1 mps 706 mmHg 35%
    07:00 +14°C° 0 mm 1 mps 706 mmHg 31%
    08:00 +15°C° 0 mm 2 mps 707 mmHg 27%
    09:00 +17°C° 0 mm 2 mps 707 mmHg 23%
    10:00 +19°C° 0 mm 3 mps 707 mmHg 19%
    11:00 +20°C° 0 mm 4 mps 707 mmHg 16%
    12:00 +21°C° 0 mm 4 mps 707 mmHg 15%
    13:00 +22°C° 0 mm 4 mps 707 mmHg 14%
    14:00 +22°C° 0 mm 5 mps 706 mmHg 13%
    15:00 +21°C° 0 mm 4 mps 706 mmHg 14%
    16:00 +20°C° 0 mm 4 mps 706 mmHg 16%
    17:00 +19°C° 0 mm 4 mps 706 mmHg 17%
    18:00 +18°C° 0 mm 4 mps 706 mmHg 20%
    19:00 +17°C° 0 mm 4 mps 706 mmHg 23%
    20:00 +14°C° 0 mm 4 mps 706 mmHg 26%
    21:00 +14°C° 0 mm 4 mps 706 mmHg 30%
    22:00 +13°C° 0 mm 4 mps 707 mmHg 33%
    23:00 +12°C° 0 mm 3 mps 707 mmHg 37%

    Tomorrow, 23 January, Tuesday

    Time Temperature Precipitation Wind Pressure Humidity
    00:00 +12°C° 0 mm 3 mps 707 mmHg 42%
    01:00 +11°C° 0 mm 3 mps 707 mmHg 46%
    02:00 +11°C° 0 mm 3 mps 707 mmHg 51%
    03:00 +10°C° 0 mm 3 mps 707 mmHg 55%
    04:00 +10°C° 0 mm 3 mps 707 mmHg 58%
    05:00 +9°C° 0 mm 3 mps 707 mmHg 62%
    06:00 +10°C° 0 mm 3 mps 707 mmHg 61%
    07:00 +11°C° 0 mm 3 mps 707 mmHg 59%
    08:00 +12°C° 0 mm 2 mps 708 mmHg 58%
    09:00 +13°C° 0 mm 3 mps 708 mmHg 52%
    10:00 +14°C° 0 mm 4 mps 708 mmHg 47%
    11:00 +17°C° 0 mm 4 mps 708 mmHg 41%
    12:00 +18°C° 0 mm 4 mps 708 mmHg 39%
    13:00 +17°C° 0 mm 5 mps 708 mmHg 36%
    14:00 +19°C° 0 mm 5 mps 707 mmHg 34%
    15:00 +19°C° 0 mm 4 mps 707 mmHg 35%
    16:00 +18°C° 0 mm 4 mps 707 mmHg 37%
    17:00 +18°C° 0 mm 4 mps 707 mmHg 39%
    18:00 +16°C° 0 mm 3 mps 707 mmHg 43%
    19:00 +14°C° 0 mm 3 mps 707 mmHg 48%
    20:00 +14°C° 0 mm 2 mps 707 mmHg 52%
    21:00 +13°C° 0 mm 2 mps 707 mmHg 55%
    22:00 +13°C° 0 mm 2 mps 707 mmHg 57%
    23:00 +12°C° 0 mm 1 mps 707 mmHg 60%

    Day after tomorrow, 24 January, Wednesday

    Time Temperature Precipitation Wind Pressure Humidity
    00:00 +12°C° 0 mm 1 mps 707 mmHg 62%
    01:00 +11°C° 0 mm 1 mps 707 mmHg 63%
    02:00 +10°C° 0 mm 1 mps 707 mmHg 65%
    03:00 +10°C° 0 mm 1 mps 707 mmHg 66%
    04:00 +9°C° 0 mm 2 mps 706 mmHg 66%
    05:00 +8°C° 0 mm 2 mps 706 mmHg 67%
    06:00 +10°C° 0 mm 1 mps 707 mmHg 61%
    07:00 +11°C° 0 mm 1 mps 707 mmHg 55%
    08:00 +12°C° 0 mm 1 mps 708 mmHg 49%
    09:00 +14°C° 0 mm 1 mps 708 mmHg 43%
    10:00 +15°C° 0 mm 2 mps 708 mmHg 37%
    11:00 +16°C° 0 mm 2 mps 708 mmHg 31%
    12:00 +17°C° 0 mm 2 mps 708 mmHg 29%
    13:00 +18°C° 0 mm 3 mps 707 mmHg 26%
    14:00 +19°C° 0 mm 3 mps 707 mmHg 23%
    15:00 +18°C° 0 mm 3 mps 706 mmHg 25%
    16:00 +18°C° 0 mm 3 mps 706 mmHg 27%
    17:00 +17°C° 0 mm 3 mps 706 mmHg 29%
    18:00 +16°C° 0 mm 3 mps 706 mmHg 33%
    19:00 +15°C° 0 mm 2 mps 707 mmHg 38%
    20:00 +14°C° 0 mm 2 mps 707 mmHg 42%
    21:00 +13°C° 0 mm 2 mps 707 mmHg 44%
    22:00 +12°C° 0 mm 2 mps 707 mmHg 46%
    23:00 +12°C° 0 mm 2 mps 707 mmHg 48%

    25 January, Thursday

    Time Temperature Precipitation Wind Pressure Humidity
    00:00 +10°C° 0 mm 2 mps 706 mmHg 49%
    01:00 +10°C° 0 mm 2 mps 706 mmHg 50%
    02:00 +9°C° 0 mm 2 mps 706 mmHg 52%
    03:00 +9°C° 0 mm 2 mps 705 mmHg 53%
    04:00 +8°C° 0 mm 2 mps 705 mmHg 55%
    05:00 +8°C° 0 mm 2 mps 705 mmHg 56%
    06:00 +9°C° 0 mm 2 mps 706 mmHg 53%
    07:00 +10°C° 0 mm 2 mps 706 mmHg 51%
    08:00 +11°C° 0 mm 3 mps 707 mmHg 48%
    09:00 +12°C° 0 mm 4 mps 707 mmHg 45%
    10:00 +14°C° 0 mm 4 mps 707 mmHg 41%
    11:00 +15°C° 0 mm 5 mps 708 mmHg 38%
    12:00 +16°C° 0 mm 6 mps 707 mmHg 36%
    13:00 +16°C° 0 mm 6 mps 707 mmHg 34%
    14:00 +17°C° 0 mm 6 mps 707 mmHg 32%
    15:00 +16°C° 0 mm 6 mps 706 mmHg 35%
    16:00 +15°C° 0 mm 6 mps 706 mmHg 38%
    17:00 +14°C° 0 mm 6 mps 706 mmHg 41%
    18:00 +13°C° 0 mm 5 mps 707 mmHg 45%
    19:00 +12°C° 0 mm 4 mps 707 mmHg 50%
    20:00 +11°C° 0 mm 3 mps 708 mmHg 55%
    21:00 +10°C° 0 mm 3 mps 708 mmHg 55%
    22:00 +9°C° 0 mm 3 mps 708 mmHg 55%
    23:00 +9°C° 0 mm 3 mps 708 mmHg 56%

    26 January, Friday

    Time Temperature Precipitation Wind Pressure Humidity
    00:00 +8°C° 0 mm 3 mps 708 mmHg 57%
    01:00 +7°C° 0 mm 3 mps 708 mmHg 58%
    02:00 +7°C° 0 mm 3 mps 707 mmHg 59%
    03:00 +5°C° 0 mm 3 mps 708 mmHg 61%
    04:00 +5°C° 0 mm 3 mps 708 mmHg 63%
    05:00 +4°C° 0 mm 3 mps 708 mmHg 65%
    06:00 +5°C° 0 mm 3 mps 708 mmHg 63%
    07:00 +5°C° 0 mm 3 mps 709 mmHg 61%
    08:00 +7°C° 0 mm 3 mps 709 mmHg 58%
    09:00 +7°C° 0 mm 4 mps 710 mmHg 49%
    10:00 +10°C° 0 mm 4 mps 710 mmHg 40%
    11:00 +12°C° 0 mm 5 mps 710 mmHg 31%
    12:00 +13°C° 0 mm 5 mps 710 mmHg 28%
    13:00 +14°C° 0 mm 5 mps 709 mmHg 25%
    14:00 +15°C° 0 mm 5 mps 709 mmHg 22%
    15:00 +14°C° 0 mm 5 mps 709 mmHg 24%
    16:00 +13°C° 0 mm 5 mps 709 mmHg 26%
    17:00 +13°C° 0 mm 5 mps 709 mmHg 28%
    18:00 +11°C° 0 mm 4 mps 709 mmHg 32%
    19:00 +10°C° 0 mm 4 mps 709 mmHg 36%
    20:00 +9°C° 0 mm 3 mps 710 mmHg 40%
    21:00 +8°C° 0 mm 3 mps 710 mmHg 44%
    22:00 +8°C° 0 mm 3 mps 710 mmHg 47%
    23:00 +7°C° 0 mm 3 mps 710 mmHg 50%

    27 January, Saturday

    Time Temperature Precipitation Wind Pressure Humidity
    00:00 +5°C° 0 mm 3 mps 710 mmHg 54%
    01:00 +6°C° 0 mm 2 mps 709 mmHg 57%
    02:00 +5°C° 0 mm 2 mps 709 mmHg 61%
    03:00 +5°C° 0 mm 2 mps 709 mmHg 64%
    04:00 +5°C° 0 mm 2 mps 709 mmHg 66%
    05:00 +4°C° 0 mm 2 mps 709 mmHg 69%
    06:00 +5°C° 0 mm 2 mps 710 mmHg 65%
    07:00 +6°C° 0 mm 2 mps 710 mmHg 60%
    08:00 +7°C° 0 mm 2 mps 711 mmHg 56%
    09:00 +9°C° 0 mm 2 mps 711 mmHg 49%
    10:00 +10°C° 0 mm 3 mps 711 mmHg 41%
    11:00 +12°C° 0 mm 3 mps 711 mmHg 34%
    12:00 +13°C° 0 mm 3 mps 711 mmHg 30%
    13:00 +14°C° 0 mm 4 mps 710 mmHg 27%
    14:00 +17°C° 0 mm 4 mps 710 mmHg 24%
    15:00 +15°C° 0 mm 4 mps 710 mmHg 26%
    16:00 +15°C° 0 mm 4 mps 710 mmHg 28%
    17:00 +14°C° 0 mm 4 mps 710 mmHg 31%
    18:00 +13°C° 0 mm 4 mps 710 mmHg 38%
    19:00 +11°C° 0 mm 3 mps 710 mmHg 45%
    20:00 +10°C° 0 mm 3 mps 710 mmHg 52%
    21:00 +9°C° 0 mm 3 mps 710 mmHg 54%
    22:00 +9°C° 0 mm 2 mps 710 mmHg 56%
    23:00 +8°C° 0 mm 2 mps 710 mmHg 59%
    Show more